Weather History for KBYS - March, 2014

Change the Weather History Date:

Thursday, March 20, 2014

  Actual Average (KDAG) Record (KDAG)
Temperature  
Mean Temperature 61 °F -  
Max Temperature 71 °F 72 °F 93 °F (1997)
Min Temperature 51 °F 47 °F 33 °F (1955)
Degree Days  
Heating Degree Days 4    
Growing Degree Days 11 (Base 50)    
Moisture  
Dew Point 8 °F    
Average Humidity 12    
Maximum Humidity 25    
Minimum Humidity 9    
Precipitation  
Precipitation 0.00 in - - ()
Sea Level Pressure  
Sea Level Pressure 29.95 in    
Wind  
Wind Speed 6 mph (ENE)    
Max Wind Speed 14 mph    
Max Gust Speed 18 mph    
Visibility 10 miles    
Events      
Averages and records for this station are not official NWS values.
T = Trace of Precipitation, MM = Missing Value Source: NWS Daily Summary

Daily Weather History Graph

Daily Weather History Graph

Search for Another Location

Airport or City:

Trip Planner

Search our weather history database for the weather conditions in past years. The results will help you decide how hot, cold, wet, or windy it might be!

Date:

Astronomy

Mar. 20, 2014 Rise Set
Actual Time 6:50 AM PDT 6:58 PM PDT
Civil Twilight 6:24 AM PDT 7:23 PM PDT
Nautical Twilight 5:55 AM PDT 7:53 PM PDT
Astronomical Twilight 5:25 AM PDT 8:23 PM PDT
Moon 11:13 PM PDT (3/20) 9:08 AM PDT (3/20)
Length of Visible Light 12h 58m
Length of Day
12h 08m
Waning Gibbous, 83% of the Moon is Illuminated
Mar 20
Waning Gibbous
Mar 23
Last Quarter
Mar 30
New
Apr 7
First Quarter
Apr 15
Full

Hourly Weather History & Observations

Time (PDT) Temp. Dew Point Humidity Pressure Visibility Wind Dir Wind Speed Gust Speed Precip Events Conditions
12:55 AM 53.6 °F 3.0 °F 13% 30.06 in 10.0 mi NNE 5.8 mph - N/A   Clear
1:55 AM 54.1 °F 2.3 °F 12% 30.05 in 10.0 mi North 3.5 mph - N/A   Clear
2:55 AM 52.0 °F 2.7 °F 13% 30.03 in 10.0 mi North 4.6 mph - N/A   Clear
3:55 AM 51.8 °F 2.7 °F 14% 30.02 in 10.0 mi NNE 4.6 mph - N/A   Clear
4:55 AM 51.3 °F 2.5 °F 14% 30.01 in 10.0 mi NNE 5.8 mph - N/A   Clear
5:55 AM 51.8 °F 2.3 °F 13% 30.01 in 10.0 mi NNE 4.6 mph - N/A   Clear
6:55 AM 52.3 °F 2.1 °F 13% 30.01 in 10.0 mi NNE 3.5 mph - N/A   Clear
7:55 AM 53.6 °F 2.3 °F 12% 30.02 in 10.0 mi Calm Calm - N/A   Clear
8:55 AM 57.2 °F 4.6 °F 12% 30.02 in 10.0 mi NE 3.5 mph - N/A   Clear
9:55 AM 59.7 °F 3.7 °F 11% 30.02 in 10.0 mi NE 3.5 mph - N/A   Clear
10:55 AM 65.1 °F 4.8 °F 9% 30.01 in 10.0 mi East 4.6 mph - N/A   Clear
11:55 AM 67.5 °F 7.0 °F 9% 29.99 in 10.0 mi Variable 4.6 mph - N/A   Clear
12:55 PM 67.5 °F 6.8 °F 9% 29.96 in 10.0 mi ESE 11.5 mph 16.1 mph N/A   Clear
1:55 PM 70.0 °F 9.0 °F 9% 29.93 in 10.0 mi ESE 13.8 mph 18.4 mph N/A   Clear
2:55 PM 70.9 °F 11.3 °F 10% 29.90 in 10.0 mi SE 11.5 mph - N/A   Clear
3:55 PM 70.5 °F 11.3 °F 10% 29.88 in 10.0 mi East 12.7 mph 18.4 mph N/A   Clear
4:55 PM 71.6 °F 11.8 °F 10% 29.86 in 10.0 mi SE 9.2 mph - N/A   Clear
5:55 PM 71.2 °F 11.7 °F 10% 29.85 in 10.0 mi South 6.9 mph - N/A   Clear
6:55 PM 68.9 °F 10.8 °F 11% 29.85 in 10.0 mi ESE 13.8 mph - N/A   Clear
7:55 PM 67.1 °F 9.9 °F 11% 29.86 in 10.0 mi ESE 11.5 mph - N/A   Clear
8:55 PM 65.7 °F 9.3 °F 11% 29.87 in 10.0 mi ESE 8.1 mph - N/A   Clear
9:55 PM 62.8 °F 9.9 °F 13% 29.89 in 10.0 mi SSW 8.1 mph - N/A   Clear
10:55 PM 61.2 °F 20.1 °F 21% 29.87 in 10.0 mi Variable 2.3 mph - N/A   Clear
11:55 PM 59.9 °F 23.7 °F 25% 29.86 in 10.0 mi West 8.1 mph - N/A   Clear